Regional Weather Roundup
Issued by NWS Portland, ME

Home | Current Version | Previous Version | Text Only | Print | Product List | Glossary On
Versions: 1 2 3 4 5 6 7 8 9 10 11 12 13 14 15 16 17 18 19 20 21 22 23 24 25 26 27 28 29 30 31 32 33 34 35 36 37 38 39 40 41 42 43 44 45 46 47 48 49 50
231
ASUS41 KGYX 280710
RWRGYX
WEATHER ROUNDUP FOR MAINE AND NEW HAMPSHIRE
NATIONAL WEATHER SERVICE GRAY ME
300 AM EDT FRI APR 28 2017

MEZ002-005-006-010-012-015-018-020-021-024-026-027-029-280800-
MAINE

CITY           SKY/WX    TMP DP  RH WIND       PRES   REMARKS
PORTLAND       FOG       47  46  97 E5        29.93F VSB 1/4
SANFORD        CLOUDY    50  49  96 CALM      29.93S
BAR HARBOR     FOG       46  45  96 NE3       29.97  VSB 1/2
WISCASSET      FOG       49  48  97 CALM      29.95S VSB 3/4
ROCKLAND         N/A     44  44 100 E3        29.95S FOG
FRYEBURG       CLOUDY    54  53  97 S6        29.91S
LEWISTONAUBURN CLOUDY    49  49 100 S3        29.92F FOG
AUGUSTA        FOG       49  48  97 VRB3      29.93S VSB 1/4
WATERVILLE     CLOUDY    50  50 100 CALM      29.89F FOG
BANGOR         CLOUDY    49  49 100 S5        29.94F FOG
GREENVILLE       N/A     52  52 100 VRB5      29.88F
MILLINOCKET    CLOUDY    54  54 100 SE5       29.93S FOG
HOULTON        CLOUDY    45  45 100 VRB5      29.93F FOG
PRESQUE ISLE   CLOUDY    48  47  96 S6        29.94F
FRENCHVILLE    FOG       39  38  96 E9        29.92F VSB 1/2
CARIBOU        CLOUDY    50  48  93 SE9       29.93S
$$

NHZ002-005-008-009-011-012-014-280800-
NEW HAMPSHIRE

CITY           SKY/WX    TMP DP  RH WIND       PRES   REMARKS
PORTSMOUTH     CLOUDY    49  48  95 CALM      29.91F FOG
ROCHESTER      CLOUDY    51  49  92 CALM      29.91F
NASHUA         CLOUDY    58  56  93 SE3       29.92R
MANCHESTER     CLOUDY    58  53  84 S6        29.90S
CONCORD        CLOUDY    56  54  93 S6        29.91S
LACONIA        CLOUDY    52  51  97 CALM      29.91S
PLYMOUTH       CLOUDY    56  55  95 CALM      29.90R FOG
BERLIN         CLOUDY    59  53  80 CALM      29.87F
WHITEFIELD     CLOUDY    59  52  77 NW3       29.86S
JAFFREY        CLOUDY    58  58 100 S5        29.91S FOG
KEENE          CLOUDY    60  57  89 S6        29.89F
LEBANON        CLOUDY    62  58  86 S8        29.86R
MT WASHINGTON  DRZL/FOG  45  45 100 W46G53      N/A  VSB 0
$$

VTZ005-007-008-280800-
VERMONT

CITY           SKY/WX    TMP DP  RH WIND       PRES   REMARKS
ST JOHNSBURY     N/A     61  56  83 MISG      29.85R
MONTPELIER     CLOUDY    60  57  89 CALM      29.89R
BURLINGTON     MOCLDY    66  58  75 S15G23    29.79R
$$

MAZ007-012-024-CTZ003-RIZ002-NYZ038-NYZ072-280800-
SOUTHERN NEW ENGLAND AND NY

CITY           SKY/WX    TMP DP  RH WIND       PRES   REMARKS
BOSTON         CLOUDY    57  56  96 S6        29.93S
WORCESTER      FOG       55  54  96 S7        29.91F VSB 1/4
NANTUCKET      FOG       51  50  96 SE8       29.97S VSB 1/4
PROVIDENCE     FOG       54  54 100 S7        29.93F VSB 1/2
HARTFORD       DRIZZLE   58  58 100 S5        29.90R FOG
ALBANY         CLOUDY    62  57  83 S13       29.85R
NEW YORK CITY  FOG       59  57  93 E5        29.86F VSB 1/4
$$

ANZ081-ANZ082-ANZ150-NHZ014-MEZ023>029-280800-
COASTAL MARINE OBSERVATIONS

STATION/POSITION TIME  TEMP    WIND        PRES    WAVE
                       AIR SEA DIR/SP/G            HT/PER
                 (UTC) (F)     (DEG/KT/KT) (MB)    (FT/S)
MOUNT DESERT ROC 0700   43                 1014.8F
MATINICUS ROCK   0600   45     210/  7/  8 1014.0F
ISLE OF SHOALS   0600   48     140/  1/  2 1013.4F
JEFFREYS LEDGE   0606      45                N/A     6/ 9
CASHES LEDGE BUO 0650   46 44              1014.6R   6/ 9
GEORGES BANK BUO 0550   48 42              1017.2    9/ 9
$$

.............KEY..............
   WCI - WIND CHILL
   TC  - TEMPERATURE IN CELSIUS
   VSB - VISIBILITY IN MILES
   HX  - HEAT INDEX
   FAIR- INDICATES FEW OR NO CLOUDS BELOW 12,000 FT, WITH NO
         SIGNIFICANT WEATHER AND/OR OBSTRUCTIONS TO VISIBILITY.






USA.gov is the U.S. government's official web portal to all federal, state and local government web resources and services.